Isle Of Palms, SC (29451)

7:26 PM EST on January 22, 2017 (GMT -0500)
Seaside Farms | | Change Station
Active Advisory: Tornado Watch, Gale Warning

Elev 14 ft 32.81 °N, 79.82 °W | Updated 20 seconds ago

Mostly Cloudy
Mostly Cloudy
62.1 °F
Feels Like 62.1 °F
N
6.0
Wind Variable Wind from SE

Today
High -- | Low -- °F
--% Chance of Precip.
Yesterday
High -- | Low -- °F
Precip. -- in
Pressure 29.39 in
Visibility 10.0 miles
Clouds Few 1800 ft
Scattered Clouds 3800 ft
Overcast 5000 ft
Dew Point 61 °F
Humidity 98%
Rainfall 1.89 in
Snow Depth Not available.
7:19 AM 5:42 PM
Waning Crescent, 22% visible
METAR KJZI 230015Z AUTO 11010KT 10SM VCTS FEW018 SCT038 OVC050 17/16 A2939 RMK AO2 LTG DSNT ALQDS
Pressure 29.39 in
Visibility 10.0 miles
Clouds Few 1800 ft
Scattered Clouds 3800 ft
Overcast 5000 ft
Dew Point 61 °F
Humidity 98%
Rainfall 1.89 in
Snow Depth Not available.
7:19 AM 5:42 PM
Waning Crescent, 22% visible
METAR KJZI 230015Z AUTO 11010KT 10SM VCTS FEW018 SCT038 OVC050 17/16 A2939 RMK AO2 LTG DSNT ALQDS

Get Your Daily Forecast Email!

Thanks for signing up!

Be on the lookout for a verification email in your inbox.

You'll start receiving the daily forecast at 8 AM.

×

10-Day Weather Forecast

Almanac

Astronomy

Jan. 22, 2017 Rise Set
Actual Time
Civil Twilight
Nautical Twilight
Astronomical Twilight
Moon
Length of Visible Light
Length of Day
Tomorrow will be .
, % of the Moon is Illuminated

Today's Extremes

State Highs State Lows

Community

WunderPhotos

Upload Photos

1,962,540 photos uploaded!

WunderBlog® & News

Nearby

Air Quality

  Air Quality AQ Index Pollutant
Not available.

Snow Depth

Station Depth Elevation

Earthquake Activity

City Distance Mag. Time & Date
Minimum magnitude displayed is 2.5.

Coastal Water Temperatures

Place Temperature

Stations

Nearby Weather Stations

Station Location Temp. Windchill Dew Point Humidity Wind Precip. Elev Updated Type
                   

Watches & Warnings

Tornado Watch
Issued: 7:03 PM EST Jan. 22, 2017 – National Weather Service

Tornado Watch 22 remains in effect until 1000 PM EST for the
following locations

SC
. South Carolina counties included are

Beaufort Charleston Jasper




Gale Warning
Issued: 2:30 PM EST Jan. 22, 2017 – National Weather Service

... Gale Warning in effect until 1 am EST Monday...

The National Weather Service in Charleston has issued a Gale
Warning... which is in effect until 1 am EST Monday.

* Winds and seas... south winds 20 to 30 kt with gusts up to 35
kt. Seas 6 to 9 feet.

Precautionary/preparedness actions...

Gale force winds are imminent or occurring. Mariners should alter
plans to avoid these hazardous conditions. Remain in port or seek
safe Harbor.